Change the Weather History Date:

Sunday, April 28, 2013

  Actual Average Record
Temperature  
Mean Temperature 67 °F -  
Max Temperature 77 °F 74 °F 80 °F (2008)
Min Temperature 57 °F 57 °F 46 °F (1999)
Cooling Degree Days 2    
Growing Degree Days 17 (Base 50)    
Moisture  
Dew Point 58 °F    
Average Humidity 73    
Maximum Humidity 94    
Minimum Humidity 41    
Precipitation  
Precipitation 0.00 in 0.13 in - ()
Sea Level Pressure  
Sea Level Pressure 30.13 in    
Wind  
Wind Speed 7 mph ()    
Max Wind Speed 12 mph    
Max Gust Speed -    
Visibility 9.7 miles    
Events      
Averages and records for this station are not official NWS values.
T = Trace of Precipitation, MM = Missing Value Source: Averaged Metar Reports

Daily Weather History Graph

Daily Weather History Graph

Search for Another Location

Airport or City:

Trip Planner

Search our weather history database for the weather conditions in past years. The results will help you decide how hot, cold, wet, or windy it might be!

Date:

Astronomy

Apr. 28, 2013 Rise Set
Actual Time 6:11 AM AEST 5:18 PM AEST
Civil Twilight 5:47 AM AEST 5:42 PM AEST
Nautical Twilight 5:19 AM AEST 6:10 PM AEST
Astronomical Twilight 4:52 AM AEST 6:37 PM AEST
Moon 7:28 PM AEST (4/28) 8:25 AM AEST (4/28)
Length of Visible Light 11h 55m
Length of Day
11h 07m
Waning Gibbous, 93% of the Moon is Illuminated
Apr 28
Waning Gibbous
May 2
Last Quarter
May 10
New
May 18
First Quarter
May 25
Full

Hourly Weather History & Observations

Time (AEST) Temp. Dew Point Humidity Pressure Visibility Wind Dir Wind Speed Gust Speed Precip Events Conditions
12:00 AM 62 °F 58 °F 81% 30.16 in 19 mi SSW 5.8 mph - -   Partly Cloudy
12:00 AM 62.6 °F 57.2 °F 82% 30.15 in - SSW 5.8 mph - N/A   Clear
12:30 AM 60.8 °F 57.2 °F 88% 30.15 in - SSW 5.8 mph - N/A   Clear
1:00 AM 60 °F 57 °F 86% 30.15 in - SSW 8.1 mph - -  
1:00 AM 60.8 °F 57.2 °F 88% 30.12 in - SSW 8.1 mph - N/A   Clear
1:30 AM 60.8 °F 57.2 °F 88% 30.12 in - SSW 8.1 mph - N/A   Clear
2:00 AM 59.0 °F 57.2 °F 94% 30.12 in - SSW 8.1 mph - N/A   Clear
2:30 AM 59.0 °F 57.2 °F 94% 30.12 in - SSW 8.1 mph - N/A   Clear
3:00 AM 59 °F 56 °F 85% 30.14 in 19 mi SSW 9.2 mph - -   Partly Cloudy
3:00 AM 59.0 °F 55.4 °F 88% 30.12 in - SSW 9.2 mph - N/A   Clear
3:30 AM 60.8 °F 55.4 °F 82% 30.12 in - SSW 10.4 mph - N/A   Clear
4:00 AM 59 °F 56 °F 86% 30.13 in - SSW 9.2 mph - -  
4:00 AM 59.0 °F 55.4 °F 88% 30.12 in - SSW 9.2 mph - N/A   Clear
4:30 AM 59.0 °F 55.4 °F 88% 30.12 in - SSW 8.1 mph - N/A   Clear
5:00 AM 59.0 °F 55.4 °F 88% 30.12 in - SSW 8.1 mph - N/A   Clear
5:30 AM 57.2 °F 55.4 °F 94% 30.12 in - SSW 8.1 mph - N/A   Clear
6:00 AM 58 °F 55 °F 87% 30.15 in 19 mi SSW 9.2 mph - -   Partly Cloudy
6:00 AM 57.2 °F 55.4 °F 94% 30.12 in 6.2 mi SSW 9.2 mph - N/A   Partly Cloudy
6:30 AM 57.2 °F 55.4 °F 94% 30.15 in 6.2 mi SSW 9.2 mph - N/A   Partly Cloudy
7:00 AM 60 °F 57 °F 86% 30.16 in - SSW 10.4 mph - -  
7:00 AM 59.0 °F 57.2 °F 94% 30.15 in 6.2 mi SSW 10.4 mph - N/A   Partly Cloudy
7:30 AM 62.6 °F 57.2 °F 82% 30.15 in 6.2 mi SSW 11.5 mph - N/A   Partly Cloudy
8:00 AM 64.4 °F 59.0 °F 83% 30.15 in 6.2 mi SSW 11.5 mph - N/A   Partly Cloudy
8:30 AM 66.2 °F 59.0 °F 78% 30.15 in 6.2 mi SSW 10.4 mph - N/A   Partly Cloudy
9:00 AM 68 °F 58 °F 64% 30.19 in 19 mi SSW 11.5 mph - -   Partly Cloudy
9:00 AM 68.0 °F 59.0 °F 73% 30.18 in 6.2 mi SSW 11.5 mph - N/A   Partly Cloudy
9:30 AM 69.8 °F 57.2 °F 64% 30.18 in 6.2 mi SSW 10.4 mph - N/A   Partly Cloudy
10:00 AM 73 °F 58 °F 50% 30.19 in - SSW 9.2 mph - -  
10:00 AM 73.4 °F 59.0 °F 61% 30.18 in 6.2 mi SSW 9.2 mph - N/A   Partly Cloudy
10:30 AM 75.2 °F 60.8 °F 61% 30.15 in 6.2 mi SSW 8.1 mph - N/A   Partly Cloudy
11:00 AM 75.2 °F 59.0 °F 57% 30.15 in 6.2 mi SSE 5.8 mph - N/A   Partly Cloudy
11:30 AM 75.2 °F 57.2 °F 53% 30.12 in 6.2 mi ESE 5.8 mph - N/A   Partly Cloudy
12:00 PM 76 °F 58 °F 44% 30.14 in 19 mi ESE 6.9 mph - -   Partly Cloudy
12:00 PM 77.0 °F 59.0 °F 54% 30.12 in 6.2 mi ESE 6.9 mph - N/A   Partly Cloudy
12:30 PM 77.0 °F 59.0 °F 54% 30.12 in 6.2 mi NE 9.2 mph - N/A   Partly Cloudy
1:00 PM 77 °F 59 °F 43% 30.11 in - NE 9.2 mph - -  
1:00 PM 77.0 °F 59.0 °F 54% 30.09 in 6.2 mi NE 9.2 mph - N/A   Partly Cloudy
1:30 PM 77.0 °F 59.0 °F 54% 30.09 in 6.2 mi NNE 9.2 mph - N/A   Partly Cloudy
2:00 PM 77.0 °F 59.0 °F 54% 30.09 in 6.2 mi North 10.4 mph - N/A   Partly Cloudy
2:30 PM 77.0 °F 59.0 °F 54% 30.09 in 6.2 mi NE 8.1 mph - N/A   Partly Cloudy
3:00 PM 77 °F 58 °F 41% 30.10 in 19 mi NNE 10.4 mph - -   Partly Cloudy
3:00 PM 77.0 °F 57.2 °F 50% 30.09 in 6.2 mi NNE 10.4 mph - N/A   Partly Cloudy
3:30 PM 75.2 °F 60.8 °F 61% 30.09 in 6.2 mi NE 9.2 mph - N/A   Partly Cloudy
4:00 PM 75 °F 60 °F 51% 30.10 in - NE 8.1 mph - -  
4:00 PM 75.2 °F 60.8 °F 61% 30.09 in 6.2 mi NE 8.1 mph - N/A   Partly Cloudy
4:30 PM 73.4 °F 62.6 °F 69% 30.09 in - NE 8.1 mph - N/A   Clear
5:00 PM 73.4 °F 60.8 °F 65% 30.09 in - NE 8.1 mph - N/A   Clear
5:30 PM 71.6 °F 60.8 °F 69% 30.12 in - ENE 5.8 mph - N/A   Clear
6:00 PM 71 °F 60 °F 60% 30.13 in 19 mi ENE 5.8 mph - -   Partly Cloudy
6:00 PM 71.6 °F 60.8 °F 69% 30.12 in - ENE 5.8 mph - N/A   Clear
6:30 PM 71.6 °F 59.0 °F 64% 30.12 in - ENE 5.8 mph - N/A   Clear
7:00 PM 71 °F 60 °F 60% 30.15 in - NE 5.8 mph - -  
7:00 PM 71.6 °F 60.8 °F 69% 30.12 in - NE 5.8 mph - N/A   Clear
7:30 PM 68.0 °F 59.0 °F 73% 30.15 in - Calm Calm - N/A   Clear
8:00 PM 68.0 °F 60.8 °F 78% 30.15 in - Calm Calm - N/A   Clear
8:30 PM 66.2 °F 60.8 °F 83% 30.15 in - NE 3.5 mph - N/A   Clear
9:00 PM 67 °F 60 °F 72% 30.17 in 19 mi Calm Calm - -   Partly Cloudy
9:00 PM 66.2 °F 60.8 °F 83% 30.15 in - Calm Calm - N/A   Clear
9:30 PM 64.4 °F 60.8 °F 88% 30.15 in - Calm Calm - N/A   Clear
10:00 PM 64 °F 60 °F 82% 30.17 in - North 1.2 mph - -  
10:00 PM 64.4 °F 59.0 °F 83% 30.15 in - North 1.2 mph - N/A   Clear
10:30 PM 62.6 °F 59.0 °F 88% 30.15 in - SW 4.6 mph - N/A   Clear
11:00 PM 62.6 °F 59.0 °F 88% 30.15 in - SW 5.8 mph - N/A   Clear
11:30 PM 62.6 °F 59.0 °F 88% 30.15 in - SSW 4.6 mph - N/A   Clear